THOR BURNER 2 R/B

Satellite information

Favourite Embed

Satellite Type and Status

ROCKET BODYIN ORBIT

Key statistics

Satellite THOR BURNER 2 R/B at a glance.

Uptime

19111

Days in orbit

Revolutions

≈ 14.3

Per day

Orbit

SSO

Sun Synchronous Orbit

Inclination

98.6

Latest

Satellite identification and parameters

Extended collection of information and parameters for THOR BURNER 2 R/B.

Object identification

Identified? True

Debris? False

Object name: THOR BURNER 2 R/B

International designator: 1973-054B

Object number (NORAD): 6788

Object ID (CCSDS): 6788

Country: UNITED STATES OF AMERICA (US)

Current information (Y/N): Y

RCS size: LARGE

Orbital parameters

Period: 100.919 minutes

Inclination: 98.6458 deg

SMA: 7180.269 km

Apoapsis: 821.312 km

Periapsis: 782.956 km

RAAN: 210.185 deg

Eccentricy: 0.00267097

Argument of periapsis: 245.8113 deg

Mean anomaly: 114.0275 deg

Mean motion: 14.26893934 rev/day

Mean motion (dot): 0.00000227 rev/day2

B* drag term: 0.00011131743 1/REarth

Two-line elements (TLE)

Creation date: Dec. 12, 2025, 10:14 a.m.

Reference frame: TEME

Reference center: EARTH

Epoch: Dec. 12, 2025, 5:29 a.m. UTC

TLE line 0: 0 THOR BURNER 2 R/B

TLE line 1: 1 06788U 73054B 25346.22874222 .00000227 00000-0 11132-3 0 9999

TLE line 2: 2 06788 98.6458 210.1850 0026710 245.8113 114.0275 14.26893934718812

Live tracking on map

Real-time ground track for satellite THOR BURNER 2 R/B.

In-orbit conjunctions

A list of the most updated potential collisions computed for object THOR BURNER 2 R/B.

Target Orbit TCA Probability of collision Miss distance Type
FENGYUN 1C DEB SSO 2025-06-24 10:18:38 0.0001068352 402.0 (m) DEBRIS
NOAA 16 DEB SSO 2025-06-20 08:39:06 0.000299764 254.0 (m) DEBRIS
FENGYUN 1C DEB SSO 2025-04-29 12:06:47 0.0001222097 759.0 (m) DEBRIS
FENGYUN 1C DEB SSO 2025-03-20 14:27:49 0.0002510893 423.0 (m) DEBRIS
DMSP 5D-2 F13 DEB SSO 2025-03-14 22:39:04 0.0001060014 152.0 (m) DEBRIS

Associated space launch

Military meteorological satellite

THOR BURNER 2 R/B was lifted into orbit during the mission ‘Thor Burner 2A | DMSP-5B F4’, on board a Thor Burner 2A space rocket.

The launch took place on Aug. 17, 1973, 4:49 a.m. from Space Launch Complex 10W.

For more information about the launch, click the button.

Launch to space Thor Burner 2A | DMSP-5B F4
Thor Burner 2A | DMSP-5B F4

Agency: N/A

Status: Launch Successful

Launch date: Aug. 17, 1973, 4:49 a.m. UTC

Rocket: Thor Burner 2A

Launch pad: Space Launch Complex 10W

Location: Vandenberg SFB, CA, USA

...

Latest news about this satellite

There are no fresh news available about this satellite. Check back as we update our databases every day.


Newsletter sign-up

Weekly statistics, charts and insights to help you stay on top of the space industry.